Location: Oberwangen
(47.4286°N, 8.9679°E)
Time: 06:13:12
(UTC+00:00)

Cosmos 1607 - Pass Details

Date: 26 October 2021
Orbit: 918 x 984 km, 65.0° (Epoch: 30 November)

Event Time Altitude Azimuth Distance (km) Brightness Sun altitude
Rises 17:06:17 0° 313° (NW) 3,647 7.6 -9.0°
Reaches altitude 10° 17:09:30 10° 298° (WNW) 2,683 7.2 -9.5°
Maximum altitude 17:13:54 20° 252° (WSW) 2,008 6.8 -10.3°
Drops below altitude 10° 17:18:15 10° 207° (SSW) 2,638 6.8 -11.0°
Sets 17:21:24 0° 191° (SSW) 3,566 7.2 -11.5°
